TimeCDT,TemperatureF,Dew PointF,Humidity,Sea Level PressureIn,VisibilityMPH,Wind Direction,Wind SpeedMPH,Gust SpeedMPH,PrecipitationIn,Events,Conditions,WindDirDegrees,DateUTC
12:53 AM,70.0,57.9,65,29.98,10.0,SSW,3.5,-,N/A,,Clear,200,2013-05-10 05:53:00
1:53 AM,69.1,57.9,68,29.96,10.0,South,4.6,-,N/A,,Mostly Cloudy,170,2013-05-10 06:53:00
2:53 AM,69.1,57.9,68,29.94,10.0,SSW,5.8,-,N/A,,Clear,200,2013-05-10 07:53:00
3:53 AM,69.1,57.9,68,29.93,10.0,South,5.8,-,N/A,,Partly Cloudy,190,2013-05-10 08:53:00
4:53 AM,68.0,57.9,70,29.91,10.0,Calm,Calm,-,N/A,,Mostly Cloudy,0,2013-05-10 09:53:00
5:53 AM,69.1,60.1,73,29.91,10.0,South,5.8,-,0.01,,Overcast,180,2013-05-10 10:53:00
6:49 AM,69.8,60.8,73,29.94,3.0,WSW,8.1,-,0.09,Rain-Thunderstorm,Light Thunderstorms and Rain,250,2013-05-10 11:49:00
6:51 AM,68.0,60.8,78,29.94,1.8,WSW,10.4,-,0.12,Rain-Thunderstorm,Heavy Thunderstorms and Rain,250,2013-05-10 11:51:00
6:57 AM,66.2,62.6,88,29.94,1.2,SW,11.5,18.4,0.04,Rain-Thunderstorm,Heavy Thunderstorms and Rain,220,2013-05-10 11:57:00
7:01 AM,66.2,62.6,88,29.94,2.0,WSW,10.4,18.4,0.07,Rain-Thunderstorm,Heavy Thunderstorms and Rain,240,2013-05-10 12:01:00
7:07 AM,66.2,62.6,88,29.94,3.0,WSW,10.4,-,0.09,Rain-Thunderstorm,Thunderstorms and Rain,250,2013-05-10 12:07:00
7:28 AM,66.2,62.6,88,29.95,10.0,WSW,5.8,-,0.09,Rain,Light Rain,240,2013-05-10 12:28:00
7:53 AM,66.9,62.1,84,29.94,10.0,SW,3.5,-,0.10,Rain,Light Rain,220,2013-05-10 12:53:00
8:21 AM,66.2,62.6,88,29.95,10.0,SW,5.8,-,0.00,Rain,Light Rain,230,2013-05-10 13:21:00
8:53 AM,66.9,63.0,87,29.96,9.0,SSW,8.1,-,0.02,Rain,Light Rain,210,2013-05-10 13:53:00
9:24 AM,66.2,62.6,88,29.98,6.0,South,8.1,-,0.04,Rain,Rain,190,2013-05-10 14:24:00
9:32 AM,66.2,62.6,88,29.98,2.5,South,10.4,-,0.11,Rain,Heavy Rain,190,2013-05-10 14:32:00
9:41 AM,66.2,62.6,88,29.98,3.0,SSW,9.2,-,0.17,Rain,Heavy Rain,200,2013-05-10 14:41:00
9:53 AM,66.0,62.1,87,29.97,3.0,South,10.4,-,0.25,Rain,Heavy Rain,180,2013-05-10 14:53:00
10:04 AM,66.2,62.6,88,29.97,5.0,South,8.1,-,0.04,Rain,Rain,180,2013-05-10 15:04:00
10:31 AM,66.2,62.6,88,29.96,4.0,SSE,6.9,-,0.10,Rain,Rain,160,2013-05-10 15:31:00
10:38 AM,66.2,62.6,88,29.96,5.0,South,6.9,-,0.11,Rain,Light Rain,170,2013-05-10 15:38:00
10:53 AM,66.9,63.0,87,29.95,8.0,South,11.5,-,0.12,Rain,Light Rain,180,2013-05-10 15:53:00
11:24 AM,66.2,60.8,83,29.95,5.0,South,13.8,24.2,0.04,Rain,Rain,190,2013-05-10 16:24:00
11:34 AM,66.2,62.6,88,29.95,5.0,South,9.2,-,0.05,Rain,Light Rain,170,2013-05-10 16:34:00
11:53 AM,66.0,61.0,84,29.93,10.0,South,16.1,25.3,0.06,Rain,Light Rain,190,2013-05-10 16:53:00
11:59 AM,66.2,60.8,83,29.94,10.0,South,16.1,24.2,0.00,Rain,Light Rain,180,2013-05-10 16:59:00
12:53 PM,66.0,61.0,84,29.91,10.0,South,11.5,-,0.04,Rain,Light Rain,190,2013-05-10 17:53:00
1:14 PM,66.2,62.6,88,29.93,10.0,South,12.7,-,0.00,Rain,Light Rain,190,2013-05-10 18:14:00
1:53 PM,66.9,62.1,84,29.91,8.0,South,15.0,-,0.00,Rain,Light Rain,190,2013-05-10 18:53:00
2:53 PM,69.1,62.1,78,29.89,10.0,SSW,12.7,21.9,0.00,,Overcast,200,2013-05-10 19:53:00
3:53 PM,68.0,63.0,84,29.88,5.0,SW,9.2,-,0.03,Rain,Light Rain,220,2013-05-10 20:53:00
4:04 PM,66.2,62.6,88,29.90,2.5,WSW,6.9,-,0.06,Rain,Rain,250,2013-05-10 21:04:00
4:07 PM,66.2,62.6,88,29.90,1.5,West,8.1,-,0.11,Rain,Heavy Rain,260,2013-05-10 21:07:00
4:12 PM,66.2,62.6,88,29.90,1.2,SW,8.1,-,0.13,Rain,Rain,230,2013-05-10 21:12:00
4:19 PM,66.2,62.6,88,29.90,1.5,WSW,8.1,-,0.18,Rain,Heavy Rain,250,2013-05-10 21:19:00
4:27 PM,66.2,62.6,88,29.90,3.0,SSW,8.1,-,0.19,Rain,Light Rain,200,2013-05-10 21:27:00
4:39 PM,66.2,62.6,88,29.90,6.0,WSW,5.8,-,0.21,Rain,Rain,240,2013-05-10 21:39:00
4:53 PM,66.9,63.0,87,29.89,7.0,SW,8.1,-,0.22,Rain,Light Rain,220,2013-05-10 21:53:00
5:11 PM,68.0,64.4,88,29.89,7.0,SSW,5.8,-,0.02,Rain,Light Rain,210,2013-05-10 22:11:00
5:49 PM,69.8,64.4,83,29.89,10.0,SW,8.1,-,0.02,,Overcast,230,2013-05-10 22:49:00
5:53 PM,69.1,64.0,84,29.88,10.0,SW,9.2,-,0.02,,Overcast,230,2013-05-10 22:53:00
6:53 PM,69.1,63.0,81,29.89,10.0,SSW,10.4,-,N/A,,Overcast,210,2013-05-10 23:53:00
7:01 PM,69.8,62.6,78,29.90,10.0,SSW,8.1,-,N/A,,Overcast,200,2013-05-11 00:01:00
7:53 PM,68.0,63.0,84,29.90,10.0,Calm,Calm,-,N/A,,Overcast,0,2013-05-11 00:53:00
8:08 PM,68.0,62.6,83,29.91,10.0,Calm,Calm,-,N/A,,Overcast,0,2013-05-11 01:08:00
8:31 PM,68.0,62.6,83,29.90,10.0,South,4.6,-,0.01,Rain,Light Rain,170,2013-05-11 01:31:00
8:53 PM,66.9,64.0,90,29.91,10.0,South,4.6,-,0.01,,Overcast,170,2013-05-11 01:53:00
9:53 PM,66.0,62.1,87,29.91,10.0,Calm,Calm,-,N/A,,Partly Cloudy,0,2013-05-11 02:53:00
10:53 PM,66.9,63.0,87,29.91,6.0,SSW,5.8,-,0.04,Rain,Rain,210,2013-05-11 03:53:00
10:58 PM,66.2,62.6,88,29.92,2.5,WSW,4.6,-,0.07,Rain,Heavy Rain,240,2013-05-11 03:58:00
11:06 PM,66.2,62.6,88,29.93,3.0,Calm,Calm,-,0.10,Rain,Rain,0,2013-05-11 04:06:00
11:15 PM,66.2,62.6,88,29.93,7.0,SW,3.5,-,0.12,Rain,Light Rain,220,2013-05-11 04:15:00
11:53 PM,64.9,61.0,87,29.92,8.0,WSW,5.8,-,0.21,Rain,Light Rain,250,2013-05-11 04:53:00